| time (UTC) | temp C | wind direction | speed KPH | gust KPH | rain 1hr cm | rain 24hr cm | rain mn cm | humidity % | barometer mb |
| 20260505130201 | 20 | 175 | 1.6 | 3.2 | 0.00 | 0.00 | 0.00 | 62 | 1010.8 |
| 20260505124119 | 18 | 186 | 6.4 | 6.4 | 0.00 | 0.00 | 0.00 | 65 | 1010.5 |
| 20260505123058 | 18 | 167 | 3.2 | 4.8 | 0.00 | 0.00 | 0.00 | 66 | 1010.5 |
| 20260505122037 | 17 | 169 | 1.6 | 1.6 | 0.00 | 0.00 | 0.00 | 68 | 1010.2 |
| 20260505121016 | 17 | 147 | 3.2 | 6.4 | 0.00 | 0.00 | 0.00 | 68 | 1010.2 |
| 20260505115955 | 16 | 185 | 1.6 | 3.2 | 0.00 | 0.00 | 0.00 | 70 | 1010.5 |
| 20260505114934 | 16 | 140 | 0.0 | 0.0 | 0.00 | 0.00 | 0.00 | 72 | 1010.2 |
| 20260505113913 | 15 | 148 | 0.0 | 0.0 | 0.00 | 0.00 | 0.00 | 76 | 1010.2 |
| 20260505112852 | 14 | 141 | 0.0 | 0.0 | 0.00 | 0.00 | 0.00 | 79 | 1009.8 |
| 20260505111831 | 13 | 144 | 0.0 | 0.0 | 0.00 | 0.00 | 0.00 | 82 | 1009.8 |
| 20260505110810 | 13 | 148 | 0.0 | 0.0 | 0.00 | 0.00 | 0.00 | 83 | 1009.5 |
| 20260505101625 | 12 | 140 | 0.0 | 1.6 | 0.00 | 0.00 | 0.00 | 83 | 1009.5 |
| 20260505100604 | 12 | 131 | 0.0 | 0.0 | 0.00 | 0.00 | 0.00 | 82 | 1009.1 |
| 20260505094522 | 13 | 137 | 0.0 | 1.6 | 0.00 | 0.00 | 0.00 | 80 | 1009.1 |
| 20260505093501 | 13 | 221 | 4.8 | 4.8 | 0.00 | 0.00 | 0.00 | 79 | 1008.8 |
| 20260505092440 | 13 | 116 | 1.6 | 1.6 | 0.00 | 0.00 | 0.00 | 78 | 1008.8 |
| 20260505091419 | 13 | 152 | 0.0 | 1.6 | 0.00 | 0.00 | 0.00 | 77 | 1008.8 |
| 20260505090358 | 13 | 153 | 0.0 | 0.0 | 0.00 | 0.00 | 0.00 | 78 | 1008.8 |
| 20260505085337 | 13 | 148 | 0.0 | 0.0 | 0.00 | 0.00 | 0.00 | 78 | 1009.1 |
| 20260505084316 | 12 | 139 | 0.0 | 0.0 | 0.00 | 0.00 | 0.00 | 80 | 1008.8 |
| 20260505083255 | 13 | 145 | 0.0 | 0.0 | 0.00 | 0.00 | 0.00 | 79 | 1008.8 |
| 20260505082234 | 13 | 150 | 0.0 | 0.0 | 0.00 | 0.00 | 0.00 | 78 | 1008.5 |
| 20260505081213 | 13 | 146 | 0.0 | 0.0 | 0.00 | 0.00 | 0.00 | 78 | 1008.8 |
| 20260505080152 | 13 | 143 | 0.0 | 0.0 | 0.00 | 0.00 | 0.00 | 79 | 1008.8 |
| 20260505075131 | 13 | 140 | 0.0 | 0.0 | 0.00 | 0.00 | 0.00 | 78 | 1008.8 |
| 20260505074110 | 13 | 143 | 0.0 | 0.0 | 0.00 | 0.00 | 0.00 | 77 | 1008.5 |
| 20260505073049 | 13 | 141 | 0.0 | 0.0 | 0.00 | 0.00 | 0.00 | 76 | 1008.5 |
| 20260505072028 | 13 | 143 | 0.0 | 0.0 | 0.00 | 0.00 | 0.00 | 75 | 1008.5 |
| 20260505071007 | 14 | 141 | 0.0 | 0.0 | 0.00 | 0.00 | 0.00 | 73 | 1008.5 |
| 20260505065946 | 15 | 152 | 0.0 | 1.6 | 0.00 | 0.00 | 0.00 | 71 | 1008.8 |
| 20260505064925 | 15 | 161 | 1.6 | 1.6 | 0.00 | 0.00 | 0.00 | 70 | 1008.8 |
| 20260505063904 | 15 | 141 | 0.0 | 0.0 | 0.00 | 0.00 | 0.00 | 69 | 1009.1 |
| 20260505062843 | 16 | 148 | 0.0 | 0.0 | 0.00 | 0.00 | 0.00 | 68 | 1009.1 |
| 20260505061822 | 16 | 143 | 0.0 | 0.0 | 0.00 | 0.00 | 0.00 | 67 | 1008.8 |
| 20260505060801 | 16 | 144 | 1.6 | 1.6 | 0.00 | 0.00 | 0.00 | 66 | 1008.8 |
| 20260505055740 | 16 | 141 | 0.0 | 1.6 | 0.00 | 0.00 | 0.00 | 64 | 1009.1 |
| 20260505054718 | 17 | 142 | 1.6 | 3.2 | 0.00 | 0.00 | 0.00 | 63 | 1008.8 |
| 20260505053658 | 16 | 273 | 4.8 | 4.8 | 0.00 | 0.00 | 0.00 | 64 | 1009.1 |
| 20260505052636 | 16 | 147 | 0.0 | 1.6 | 0.00 | 0.00 | 0.00 | 66 | 1008.8 |
| 20260505051616 | 16 | 144 | 0.0 | 0.0 | 0.00 | 0.00 | 0.00 | 66 | 1008.8 |
| 20260505050555 | 16 | 187 | 3.2 | 4.8 | 0.00 | 0.00 | 0.00 | 65 | 1008.8 |
| 20260505041410 | 16 | 170 | 0.0 | 0.0 | 0.00 | 0.00 | 0.00 | 65 | 1009.1 |
| 20260505040348 | 16 | 149 | 0.0 | 0.0 | 0.00 | 0.00 | 0.00 | 64 | 1008.5 |
| 20260505035328 | 16 | 158 | 0.0 | 0.0 | 0.00 | 0.00 | 0.00 | 62 | 1008.8 |
| 20260505034306 | 17 | 189 | 1.6 | 1.6 | 0.00 | 0.00 | 0.00 | 61 | 1008.5 |
| 20260505033246 | 17 | 206 | 4.8 | 6.4 | 0.00 | 0.00 | 0.00 | 60 | 1008.5 |
| 20260505032224 | 17 | 207 | 4.8 | 6.4 | 0.00 | 0.00 | 0.00 | 60 | 1008.5 |
| 20260505031204 | 17 | 155 | 1.6 | 1.6 | 0.00 | 0.00 | 0.00 | 58 | 1008.5 |
| 20260505030143 | 17 | 178 | 3.2 | 4.8 | 0.00 | 0.00 | 0.00 | 58 | 1008.5 |
| 20260505025122 | 17 | 164 | 3.2 | 3.2 | 0.00 | 0.00 | 0.00 | 58 | 1008.5 |
| 20260505024100 | 17 | 144 | 0.0 | 1.6 | 0.00 | 0.00 | 0.00 | 58 | 1008.5 |
| 20260505023040 | 17 | 152 | 1.6 | 1.6 | 0.00 | 0.00 | 0.00 | 57 | 1008.8 |
| 20260505022018 | 18 | 180 | 3.2 | 3.2 | 0.00 | 0.00 | 0.00 | 55 | 1008.8 |
| 20260505020958 | 17 | 180 | 1.6 | 1.6 | 0.00 | 0.00 | 0.00 | 55 | 1008.8 |
| 20260505015937 | 18 | 169 | 3.2 | 3.2 | 0.00 | 0.00 | 0.00 | 54 | 1008.8 |
| 20260505014916 | 18 | 189 | 1.6 | 3.2 | 0.00 | 0.00 | 0.00 | 52 | 1008.8 |
| 20260505013855 | 18 | 181 | 1.6 | 3.2 | 0.00 | 0.00 | 0.00 | 53 | 1009.1 |
| 20260505012834 | 18 | 203 | 3.2 | 4.8 | 0.00 | 0.00 | 0.00 | 51 | 1009.1 |
| 20260505011812 | 18 | 164 | 1.6 | 3.2 | 0.00 | 0.00 | 0.00 | 51 | 1008.5 |
| 20260505010752 | 18 | 198 | 6.4 | 6.4 | 0.00 | 0.00 | 0.00 | 51 | 1008.5 |
| 20260505005731 | 18 | 164 | 1.6 | 3.2 | 0.00 | 0.00 | 0.00 | 50 | 1008.5 |
| 20260505004710 | 18 | 144 | 3.2 | 4.8 | 0.00 | 0.00 | 0.00 | 50 | 1008.1 |
| 20260505003622 | 18 | 147 | 1.6 | 1.6 | 0.00 | 0.00 | 0.00 | 50 | 1008.5 |
| 20260505002601 | 19 | 129 | 0.0 | 0.0 | 0.00 | 0.00 | 0.00 | 49 | 1008.1 |
| 20260505001540 | 19 | 242 | 3.2 | 4.8 | 0.00 | 0.00 | 0.00 | 48 | 1008.5 |
| 20260505000519 | 20 | 123 | 1.6 | 1.6 | 0.00 | 0.00 | 0.00 | 47 | 1008.1 |
| 20260504235457 | 20 | 184 | 3.2 | 3.2 | 0.00 | 0.00 | 0.00 | 46 | 1008.1 |
| 20260504234436 | 20 | 164 | 6.4 | 6.4 | 0.00 | 0.00 | 0.00 | 45 | 1008.1 |
| 20260504233415 | 21 | 224 | 4.8 | 4.8 | 0.00 | 0.00 | 0.00 | 45 | 1007.8 |
| 20260504232354 | 21 | 189 | 6.4 | 6.4 | 0.00 | 0.00 | 0.00 | 44 | 1007.8 |
| 20260504231334 | 21 | 180 | 4.8 | 6.4 | 0.00 | 0.00 | 0.00 | 43 | 1007.8 |
| 20260504230312 | 22 | 190 | 8.0 | 9.7 | 0.00 | 0.00 | 0.00 | 43 | 1007.8 |
| 20260504225252 | 22 | 191 | 3.2 | 4.8 | 0.00 | 0.00 | 0.00 | 43 | 1007.8 |
| 20260504224231 | 22 | 199 | 1.6 | 1.6 | 0.00 | 0.00 | 0.00 | 41 | 1007.8 |
| 20260504223209 | 22 | 199 | 4.8 | 4.8 | 0.00 | 0.00 | 0.00 | 41 | 1007.8 |
| 20260504222148 | 23 | 175 | 4.8 | 6.4 | 0.00 | 0.00 | 0.00 | 40 | 1007.4 |
| 20260504221127 | 23 | 204 | 3.2 | 3.2 | 0.00 | 0.00 | 0.00 | 40 | 1007.8 |
| 20260504220106 | 23 | 185 | 3.2 | 4.8 | 0.00 | 0.00 | 0.00 | 38 | 1007.8 |
| 20260504215045 | 23 | 194 | 11.3 | 12.9 | 0.00 | 0.00 | 0.00 | 37 | 1007.8 |
| 20260504214024 | 23 | 199 | 4.8 | 9.7 | 0.00 | 0.00 | 0.00 | 39 | 1007.8 |
| 20260504213003 | 23 | 176 | 6.4 | 9.7 | 0.00 | 0.00 | 0.00 | 37 | 1008.1 |
| 20260504211942 | 24 | 272 | 8.0 | 11.3 | 0.00 | 0.00 | 0.00 | 37 | 1007.8 |
| 20260504210921 | 24 | 198 | 3.2 | 3.2 | 0.00 | 0.00 | 0.00 | 37 | 1007.8 |
| 20260504205900 | 23 | 190 | 1.6 | 3.2 | 0.00 | 0.00 | 0.00 | 37 | 1007.8 |
| 20260504204839 | 23 | 225 | 4.8 | 6.4 | 0.00 | 0.00 | 0.00 | 39 | 1007.8 |
| 20260504203818 | 23 | 191 | 3.2 | 3.2 | 0.00 | 0.00 | 0.00 | 37 | 1007.8 |
| 20260504202757 | 24 | 153 | 6.4 | 9.7 | 0.00 | 0.00 | 0.00 | 38 | 1007.8 |
| 20260504201736 | 23 | 182 | 1.6 | 3.2 | 0.00 | 0.00 | 0.00 | 38 | 1008.1 |
| 20260504200715 | 23 | 205 | 3.2 | 4.8 | 0.00 | 0.00 | 0.00 | 39 | 1008.5 |
| 20260504195654 | 23 | 258 | 8.0 | 11.3 | 0.00 | 0.00 | 0.00 | 37 | 1008.5 |
| 20260504194633 | 23 | 247 | 6.4 | 6.4 | 0.00 | 0.00 | 0.00 | 38 | 1008.5 |
| 20260504193612 | 23 | 179 | 9.7 | 14.5 | 0.00 | 0.00 | 0.00 | 39 | 1008.5 |
| 20260504192551 | 23 | 187 | 6.4 | 6.4 | 0.00 | 0.00 | 0.00 | 37 | 1008.8 |
| 20260504191530 | 23 | 211 | 3.2 | 4.8 | 0.00 | 0.00 | 0.00 | 38 | 1009.1 |
| 20260504190509 | 23 | 148 | 6.4 | 6.4 | 0.00 | 0.00 | 0.00 | 39 | 1009.1 |
| 20260504185448 | 22 | 299 | 6.4 | 6.4 | 0.00 | 0.00 | 0.00 | 37 | 1009.1 |
| 20260504184427 | 22 | 201 | 8.0 | 11.3 | 0.00 | 0.00 | 0.00 | 38 | 1009.5 |
| 20260504183406 | 22 | 151 | 9.7 | 12.9 | 0.00 | 0.00 | 0.00 | 38 | 1009.5 |
| 20260504182345 | 22 | 156 | 6.4 | 9.7 | 0.00 | 0.00 | 0.00 | 39 | 1009.8 |
| 20260504181324 | 22 | 221 | 4.8 | 6.4 | 0.00 | 0.00 | 0.00 | 39 | 1009.8 |
| 20260504180303 | 22 | 234 | 4.8 | 6.4 | 0.00 | 0.00 | 0.00 | 40 | 1010.2 |
| 20260504175242 | 22 | 225 | 6.4 | 6.4 | 0.00 | 0.00 | 0.00 | 40 | 1010.2 |
| 20260504174221 | 21 | 243 | 8.0 | 9.7 | 0.00 | 0.00 | 0.00 | 40 | 1010.2 |
| 20260504173200 | 21 | 171 | 4.8 | 6.4 | 0.00 | 0.00 | 0.00 | 39 | 1010.5 |
| 20260504172139 | 21 | 227 | 3.2 | 6.4 | 0.00 | 0.00 | 0.00 | 40 | 1010.8 |
| 20260504171118 | 21 | 315 | 4.8 | 6.4 | 0.00 | 0.00 | 0.00 | 40 | 1010.8 |
| 20260504150706 | 18 | 164 | 3.2 | 4.8 | 0.00 | 0.00 | 0.00 | 42 | 1012.2 |
| 20260504140500 | 17 | 166 | 4.8 | 6.4 | 0.00 | 0.00 | 0.00 | 51 | 1012.5 |